TimeCST,TemperatureF,Dew PointF,Humidity,Sea Level PressureIn,VisibilityMPH,Wind Direction,Wind SpeedMPH,Gust SpeedMPH,PrecipitationIn,Events,Conditions,WindDirDegrees,DateUTC
12:52 AM,45.0,30.9,58,30.10,10.0,SSE,5.8,-,N/A,,Clear,150,2013-02-10 06:52:00
1:52 AM,48.0,30.0,50,30.10,10.0,South,10.4,-,N/A,,Overcast,170,2013-02-10 07:52:00
2:52 AM,46.0,35.1,66,30.10,10.0,SSE,5.8,-,0.00,Rain,Light Rain,160,2013-02-10 08:52:00
3:52 AM,45.0,37.9,76,30.09,10.0,SE,5.8,-,0.01,,Overcast,130,2013-02-10 09:52:00
4:52 AM,46.0,37.0,71,30.05,10.0,SE,6.9,-,N/A,,Mostly Cloudy,130,2013-02-10 10:52:00
5:52 AM,48.9,36.0,61,30.05,10.0,SSE,9.2,-,N/A,,Mostly Cloudy,150,2013-02-10 11:52:00
6:52 AM,50.0,36.0,59,30.05,10.0,SSE,9.2,-,N/A,,Scattered Clouds,150,2013-02-10 12:52:00
7:52 AM,53.1,37.0,55,30.04,10.0,SSE,9.2,18.4,0.00,,Partly Cloudy,160,2013-02-10 13:52:00
8:52 AM,54.0,37.0,53,29.99,10.0,SSE,13.8,21.9,N/A,,Clear,150,2013-02-10 14:52:00
9:52 AM,59.0,37.9,46,29.96,10.0,South,18.4,25.3,N/A,,Clear,180,2013-02-10 15:52:00
10:52 AM,60.1,39.0,46,29.95,10.0,South,23.0,29.9,N/A,,Scattered Clouds,180,2013-02-10 16:52:00
11:52 AM,57.0,43.0,59,29.92,10.0,South,16.1,25.3,0.02,Rain,Light Rain,170,2013-02-10 17:52:00
12:06 PM,57.2,44.6,63,29.97,10.0,SSW,21.9,34.5,0.00,Rain-Thunderstorm,Light Thunderstorms and Rain,200,2013-02-10 18:06:00
12:16 PM,53.6,46.4,77,29.95,2.5,South,20.7,32.2,0.03,Rain,Heavy Rain,180,2013-02-10 18:16:00
12:28 PM,53.6,46.4,77,29.96,3.0,South,24.2,31.1,0.06,Rain,Rain,180,2013-02-10 18:28:00
12:38 PM,51.8,48.2,88,29.96,2.0,South,16.1,28.8,0.10,Rain,Heavy Rain,180,2013-02-10 18:38:00
12:52 PM,52.0,48.9,89,29.98,1.8,SSW,13.8,-,0.17,Rain,Heavy Rain,200,2013-02-10 18:52:00
1:07 PM,51.8,48.2,88,29.97,3.0,South,12.7,-,0.04,Rain,Rain,190,2013-02-10 19:07:00
1:24 PM,51.8,48.2,88,29.96,3.0,South,13.8,18.4,0.07,Rain,Light Rain,170,2013-02-10 19:24:00
1:52 PM,51.1,48.0,89,29.91,4.0,SSE,19.6,25.3,0.11,Rain,Light Rain,160,2013-02-10 19:52:00
2:04 PM,50.0,46.4,87,29.89,7.0,SSE,19.6,27.6,0.01,Rain,Light Rain,160,2013-02-10 20:04:00
2:34 PM,50.0,48.2,94,29.82,10.0,SSE,19.6,26.5,0.01,,Overcast,150,2013-02-10 20:34:00
2:52 PM,50.0,46.9,89,29.83,10.0,SSE,18.4,29.9,0.01,,Overcast,160,2013-02-10 20:52:00
3:37 PM,51.8,46.4,82,29.85,10.0,South,16.1,23.0,N/A,,Overcast,170,2013-02-10 21:37:00
3:52 PM,51.1,46.9,86,29.84,10.0,South,15.0,26.5,N/A,,Overcast,170,2013-02-10 21:52:00
4:52 PM,52.0,48.0,86,29.83,10.0,South,12.7,18.4,N/A,,Overcast,170,2013-02-10 22:52:00
5:37 PM,53.6,48.2,82,29.82,10.0,SSE,13.8,20.7,N/A,,Overcast,160,2013-02-10 23:37:00
5:52 PM,53.1,48.9,86,29.81,10.0,South,15.0,21.9,N/A,,Overcast,170,2013-02-10 23:52:00
6:02 PM,53.6,48.2,82,29.81,10.0,South,12.7,23.0,N/A,,Overcast,170,2013-02-11 00:02:00
6:52 PM,54.0,50.0,86,29.82,10.0,South,10.4,-,N/A,,Overcast,180,2013-02-11 00:52:00
7:22 PM,55.4,51.8,88,29.82,10.0,South,11.5,-,N/A,,Overcast,190,2013-02-11 01:22:00
7:52 PM,55.9,53.1,90,29.83,10.0,SSW,9.2,-,N/A,,Overcast,210,2013-02-11 01:52:00
8:47 PM,55.4,53.6,94,29.85,4.0,SSW,10.4,-,N/A,,Overcast,210,2013-02-11 02:47:00
8:52 PM,55.9,54.0,93,29.85,4.0,SSW,11.5,-,N/A,,Overcast,210,2013-02-11 02:52:00
9:52 PM,57.0,55.0,93,29.86,8.0,SW,10.4,-,N/A,,Overcast,220,2013-02-11 03:52:00
10:34 PM,57.2,55.4,94,29.87,10.0,SW,9.2,-,N/A,,Overcast,230,2013-02-11 04:34:00
10:52 PM,57.0,55.0,93,29.86,10.0,SW,9.2,-,N/A,,Overcast,220,2013-02-11 04:52:00
11:18 PM,57.2,55.4,94,29.88,10.0,SW,9.2,-,N/A,,Overcast,220,2013-02-11 05:18:00
11:52 PM,57.9,55.0,90,29.88,10.0,SW,8.1,-,N/A,,Overcast,220,2013-02-11 05:52:00